Вернуться в каталог

COSMOS 1743

АктивенНавигацияPO
NORAD 16719·PAYLOAD·🇷🇺 Russia

Запущен May 15, 1986 с Plesetsk Cosmodrome

Loading…

Ближайшие Пролёты (ближайшие 24 часа)

TLE

СвежийSource: Space-Track

Эпоха: Sep 14, 2026, 21:02 UTC

1 16719U 86034A   26257.87643542  .00090019  00000-0  57408-3 0  9992
2 16719  82.5225 232.7280 0001770  88.4814 271.6654 15.76099294209871

Отслеживайте COSMOS 1743 в реальном времени с AllMySat

Download on the App Store